Location: Bandys
(35.4750°N, 81.0830°W)
Time: 04:53:13
(UTC-04:00)

Daily predictions for brighter satellites

Satellite Brightness Start Highest point End
(mag) Time Altitude Azimuth Time Altitude Azimuth Time Altitude Azimuth
Cosmos 2058 4.4 00:12:00 34° WNW 00:12:00 34° WNW 00:15:18 10° NNW
H-2A R/B 4.1 00:12:35 16° WSW 00:13:44 18° W 00:17:15 10° NW
Cosmos 1844 Rocket 4.3 00:16:14 22° ENE 00:16:14 22° ENE 00:18:49 10° NE
Cosmos 1455 3.9 00:10:49 10° N 00:12:57 31° N 00:12:57 31° N
Cosmos 1503 Rocket 4.3 00:19:42 62° NW 00:19:42 62° NW 00:24:36 10° N
Cosmos 1943 3.3 00:15:25 10° NNW 00:20:39 65° W 00:20:39 65° W
Tsikada Rocket 4.5 00:23:22 47° E 00:23:22 47° E 00:29:09 10° NNE
CZ-2C R/B 3.7 00:28:02 52° ENE 00:28:02 52° ENE 00:33:27 10° N
Lacrosse 5 2.9 00:26:15 10° NW 00:29:38 39° WNW 00:29:38 39° WNW
H-2A R/B 4.3 00:37:37 18° WNW 00:37:37 18° WNW 00:39:44 10° NW
Cosmos 968 Rocket 4.1 00:53:51 51° NNE 00:53:51 51° NNE 00:57:46 10° NNE
CZ-2C R/B 3.0 00:51:21 10° N 00:55:49 61° NNW 00:55:49 61° NNW
Cosmos 2278 Rocket 3.9 01:03:25 23° ENE 01:03:25 23° ENE 01:06:18 10° NE
Cosmos 540 Rocket 4.5 00:57:33 10° NNW 01:01:10 40° NW 01:01:10 40° NW
Cosmos 1844 4.4 01:07:54 46° NE 01:07:54 46° NE 01:12:01 10° NNE
Cosmos 2034 Rocket 4.4 01:11:13 10° NNW 01:17:05 52° W 01:17:05 52° W
COSMOS 2406 3.6 01:14:01 10° NNW 01:19:01 59° NNE 01:19:01 59° NNE
ALOS 2 4.3 01:23:03 29° NW 01:23:03 29° NW 01:25:22 10° NNW
CZ-4C R/B 2.6 01:22:54 55° NNW 01:22:54 55° NNW 01:28:04 10° NNE
Meteor 2-10 Rocket 4.1 01:22:46 10° N 01:27:04 59° NNW 01:27:04 59° NNW
CZ-4B R/B 4.4 01:31:59 16° NNE 01:31:59 16° NNE 01:32:53 10° N
Meteor 2-3 Rocket 4.0 01:36:55 66° NE 01:36:55 66° NE 01:41:56 10° NNE
ATLAS 3B R/B 4.3 01:41:11 22° ESE 01:41:11 22° ESE 01:46:10 10° ENE
Cosmos 1634 Rocket 4.1 01:50:30 10° NNW 01:56:07 64° WNW 01:56:07 64° WNW
Cosmos 1844 Rocket 3.8 01:57:52 35° WNW 01:57:54 35° WNW 02:02:58 10° N
Cosmos 1680 Rocket 4.3 02:00:35 10° N 02:05:27 47° ENE 02:05:27 47° ENE
Aureole 3 4.5 02:11:57 66° NW 02:11:57 66° NW 02:16:52 10° N
Cosmos 2180 Rocket 4.4 02:09:12 10° N 02:15:32 81° E 02:15:39 81° E
Cosmos 1898 Rocket 4.3 02:22:53 44° ENE 02:22:53 44° ENE 02:27:07 10° NNE
Cosmos 1607 3.9 02:24:04 70° E 02:24:04 70° E 02:30:01 10° NNE
SeaSat 1 4.0 02:26:04 24° E 02:27:45 30° ENE 02:32:02 10° N
CZ-2D R/B 4.3 02:30:13 10° ENE 02:33:23 16° E 02:34:35 15° ESE
Cosmos 1932 4.3 02:40:33 79° SW 02:40:59 88° WNW 02:47:35 10° NNE
H-2A R/B 4.0 02:40:35 10° N 02:43:43 32° NW 02:43:43 32° NW
Cosmos 2278 Rocket 3.1 02:45:15 36° WNW 02:45:30 36° WNW 02:50:42 10° N
Nadezhda 4 Rocket 3.9 02:50:39 68° WSW 02:51:03 70° W 02:57:22 10° N
Cosmos 2369 Rocket 4.2 02:54:36 14° ESE 02:56:10 16° E 02:59:25 10° ENE
IRS-P3 4.2 02:51:31 10° NNE 02:56:51 67° ESE 02:57:02 66° ESE
Cosmos 1833 Rocket 3.0 02:51:51 10° NNW 02:57:28 61° ENE 02:58:54 46° ESE
NPP 3.7 02:53:41 10° NNE 02:59:02 65° E 02:59:20 63° ESE
COSMOS 2487 4.3 03:01:13 10° N 03:03:25 31° NNE 03:03:25 31° NNE
GP-B 3.6 03:00:23 10° N 03:04:28 56° ENE 03:04:28 56° ENE
Cosmos 2297 3.9 03:04:57 57° W 03:05:17 58° WNW 03:10:53 10° NNE
SL-16 R/B 3.7 03:01:34 15° SE 03:06:06 38° ENE 03:11:47 10° N
Cosmos 2298 Rocket 3.9 03:07:34 78° W 03:07:37 78° WNW 03:12:57 10° NNE
USA 267 3.9 03:08:29 10° ENE 03:14:32 39° SE 03:15:50 36° SSE
Cosmos 1733 Rocket 3.9 03:19:01 40° NW 03:19:01 40° NW 03:22:25 10° N
Cosmos 2150 Rocket 4.0 03:19:04 66° WSW 03:19:29 69° WNW 03:24:57 10° NNE
Exosat Rocket 4.1 03:14:13 10° NNW 03:20:00 86° ENE 03:24:04 30° SSE
BREEZE-M DEB (TANK) 4.1 03:18:10 46° WSW 03:20:27 85° NW 03:45:10 10° NE
Cosmos 2082 Rocket 2.0 03:16:42 10° NNW 03:22:19 77° WSW 03:22:58 67° SSW
ADEOS Rocket 3.4 03:14:51 10° NNE 03:22:29 78° ESE 03:25:04 44° S
ATLAS 3B R/B 3.0 03:28:26 44° WSW 03:30:57 68° WNW 03:38:11 10° NNE
Cosmos 44 4.3 03:32:00 31° WNW 03:32:20 31° NW 03:36:24 10° N
Sich 1 Rocket 3.5 03:38:43 71° WSW 03:38:54 72° W 03:43:30 10° N
S3M 4.5 03:35:18 10° N 03:41:23 57° E 03:45:40 19° SSE
Meteor 1-27 Rocket 4.4 03:37:31 10° NNW 03:42:55 37° W 03:43:18 37° W
ERS-1 4.5 03:39:25 10° NNE 03:44:39 85° ESE 03:46:01 51° S
Gbstr 26 Del rocket 4.4 03:45:07 22° ESE 03:45:07 22° ESE 03:47:42 10° ENE
ADEOS 3.7 03:41:14 10° NNE 03:46:27 67° ESE 03:48:14 41° S
AQUA 4.1 03:42:23 10° N 03:46:58 49° WNW 03:47:29 47° W
Okean 3 3.3 03:43:27 10° NNW 03:47:40 70° W 03:47:40 70° W
Cosmos 1417 Rocket 4.4 03:42:02 10° N 03:48:12 86° E 03:51:20 31° S
Cosmos 1937 Rocket 4.4 03:49:53 31° W 03:50:42 33° WNW 03:55:21 10° N
Timation 2 Rocket 3.8 03:46:28 10° NNW 03:52:34 74° WSW 03:56:12 27° S
Cosmos 1633 3.9 03:54:43 28° SE 03:55:47 34° E 03:59:06 10° NNE
Resurs 1-4 Rocket 2.0 03:52:57 10° N 03:58:17 78° WNW 04:00:04 43° SSW
Cosmos 1908 Rocket 4.2 03:58:20 38° W 03:58:30 38° W 04:02:39 10° N
COBE Rocket 4.3 03:55:53 10° N 04:00:30 47° WNW 04:01:30 41° WSW
BREEZE-M DEB (TANK) 3.5 03:56:48 31° SW 04:01:19 75° SE 04:04:59 10° ENE
BREEZE M DEB (TANK) 3.2 04:04:02 22° E 04:04:02 22° E 04:05:08 10° ENE
BREEZE-M DEB (TANK) 2.4 04:04:04 44° NW 04:04:09 44° NNW 04:08:21 10° NE
SeaSat 1 3.4 04:05:49 29° W 04:05:49 29° W 04:09:30 10° NW
MOS 1 Rocket 3.9 03:59:56 10° NNE 04:05:15 63° E 04:08:00 27° S
OAO 1 4.4 04:04:33 39° WSW 04:06:37 74° S 04:12:06 10° E
Okean 2 Rocket 2.9 04:05:26 47° S 04:06:40 86° W 04:11:06 10° N
Cosmos 1378 Rocket 4.1 04:09:07 10° NNW 04:13:05 37° W 04:13:18 36° W
CZ-2D R/B 2.4 04:08:28 10° N 04:13:44 57° WNW 04:15:54 34° SW
Cosmos 1125 Rocket 3.5 04:11:41 36° SSW 04:13:54 81° WNW 04:19:13 10° NNE
Delta 2 Rocket 4.0 04:15:57 36° WSW 04:17:15 44° SSW 04:21:39 10° SE
ARIANE 5 R/B 2.7 04:14:11 10° N 04:19:02 53° WNW 04:20:57 33° SW
Cosmos 1553 Rocket 4.1 04:13:26 10° NNW 04:19:45 64° W 04:23:53 23° SSW
Cosmos 1782 Rocket 4.3 04:20:22 34° WSW 04:21:17 38° W 04:25:29 10° N
USA 238 DEB 4.5 04:18:44 23° WSW 04:22:36 41° NW 04:29:11 10° NNE
USA 238 4.4 04:18:50 23° WSW 04:22:42 42° NW 04:29:17 10° NNE
CZ-2D R/B 3.6 04:18:20 10° NNE 04:22:45 79° ESE 04:25:06 28° S
UNKNOWN OBJECT B 2.6 04:25:07 10° N 04:28:49 72° WNW 04:30:08 37° SSW
IRS-1D 4.2 04:24:23 10° N 04:29:03 37° WNW 04:31:04 26° WSW
Meteor 1-18 Rocket 4.3 04:27:21 10° NNW 04:32:46 58° W 04:36:39 19° SSW
CZ-3A R/B 4.0 04:31:03 23° SW 04:34:55 33° S 05:04:42 10° ESE
Cosmos 1943 Rocket 2.4 04:33:06 20° S 04:37:07 71° ESE 04:42:45 10° NNE
Cosmos 2369 Rocket 2.4 04:36:24 25° SW 04:39:34 58° WNW 04:45:08 10° NNE
Okean O Rocket 3.4 04:36:42 10° NE 04:40:28 28° E 04:44:14 10° SSE
Cosmos 1833 Rocket 4.3 04:37:39 10° WNW 04:40:32 15° W 04:40:32 15° W
PSLV R/B 3.1 04:41:01 35° WSW 04:42:15 89° SSE 04:45:34 10° ENE
Cosmos 1346 3.9 04:39:56 10° NNW 04:41:59 28° WNW 04:41:59 28° WNW
Cosmos 1437 4.3 04:43:31 10° NW 04:45:48 20° W 04:45:48 20° W
Cosmos 1269 Rocket 4.0 04:41:03 10° NNW 04:46:23 83° WSW 04:51:39 10° SSE
Cosmos 405 Rocket 2.8 04:43:42 10° NNW 04:47:36 56° W 04:50:19 18° S
COSMOS 2455 2.8 04:44:20 19° SSW 04:48:46 90° ESE 04:54:48 10° NNE
SL-16 R/B 3.4 04:46:39 20° SW 04:49:42 30° W 04:55:05 10° NW
CZ-3B DEB 3.9 04:38:21 10° NW 04:51:10 63° WSW 05:00:57 10° SSE
Cosmos 1812 4.2 04:50:11 10° NW 04:52:59 19° W 04:53:36 19° WSW
ADEOS II 2.7 04:48:51 10° NNE 04:54:02 55° E 04:59:09 10° S
Cosmos 1975 Rocket 4.3 04:50:58 10° NW 04:54:23 23° W 04:55:49 19° WSW
Cosmos 2151 Rocket 3.9 04:51:48 20° SSW 04:54:43 51° W 04:59:08 10° N
Cosmos 2263 4.4 04:52:13 19° SW 04:56:22 60° WNW 05:02:06 10° NNE
USA 267 3.7 04:51:16 10° NE 04:57:34 52° NW 05:03:11 13° WSW
USA 161 0.8 04:59:05 21° S 05:00:27 66° W 05:02:53 10° NNW
Cosmos 1536 2.8 04:58:11 10° S 05:02:06 82° E 05:06:06 10° N
NOSS 3-2 (C) 3.8 04:57:46 17° SW 05:02:15 53° NW 05:08:36 10° NNE
NOSS 3-2 (A) 4.2 04:58:42 16° WSW 05:03:10 40° NW 05:09:16 10° NNE
Cosmos 158 Rocket 4.2 05:04:39 10° NNW 05:09:27 44° WSW 05:14:08 10° S
Cosmos 2344 4.2 05:05:50 14° WSW 05:12:16 46° NW 05:20:19 10° NNE
ASTRO E2 3.1 05:12:02 15° WSW 05:15:05 44° S 05:18:54 10° ESE
MOS 1-B 4.5 05:10:46 10° N 05:16:29 61° WNW 05:22:08 10° SSW
Cosmos 1536 Rocket 3.9 05:12:54 10° NNW 05:17:11 45° W 05:21:26 10° SSW
Cosmos 2315 Rocket 4.1 05:12:45 10° NNW 05:18:57 60° W 05:25:03 10° S
Cosmos 1025 Rocket 4.1 05:16:01 10° N 05:20:18 49° E 05:24:33 10° SSE
CENTAUR R/B 2.7 05:14:37 10° SSW 05:20:25 70° ESE 05:27:00 10° NE
BREEZE-M DEB (TANK) 2.4 05:19:43 10° WNW 05:23:16 52° SW 05:25:54 10° SE
PSLV R/B 3.8 05:20:26 10° N 05:24:05 60° WNW 05:27:44 10° SSW
IRS-1C Rocket 4.3 05:22:02 10° NNE 05:27:19 75° ESE 05:32:34 10° S
Gbstr 26 Del rocket 3.8 05:27:58 10° W 05:31:23 33° NW 05:34:53 10° NNE
PSLV R/B 3.5 05:28:53 10° N 05:33:07 75° WNW 05:37:23 10° SSW
DNEPR-1 R/B 4.2 05:27:52 10° SSW 05:33:41 76° ESE 05:38:32 10° NNE
SL-08 R/B 4.5 05:27:59 10° S 05:34:04 86° W 05:40:15 10° N
Okean 1-7 Rocket 3.8 05:29:51 10° N 05:34:20 79° E 05:38:44 10° S
Tiangong 2 3.8 05:38:44 10° SSE 05:39:58 12° SE 05:41:12 10° ESE
CZ-4B R/B 3.3 05:36:26 10° N 05:42:00 79° WNW 05:47:38 10° SSW
Okean 1 Rocket 3.7 05:39:21 10° SSW 05:43:31 39° W 05:47:43 10° N
Meteor 2-4 Rocket 4.0 05:40:18 10° NNW 05:45:40 47° W 05:50:52 10° SSW
